Date String (YYYY-MM-DD hh:mm:ss) UTC,Instrument flags,Ambient pressure (hPa),Sample flow (lpm),Bypass flow (lpm),Sample temperature (°C),Ambient temperature (°C),ASC tube jacket temperature (°C),LED temperature (°C),Box temperature (°C),Sample RH (%),Span deviation,Mass concentration (μg/m³),Mass concentration (μg/m³),Mass concentration (μg/m³)
DateTimeUTC,F1_M11,P_M11,Q1_M11,Q2_M11,T1_M11,T2_M11,T3_M11,T4_M11,T5_M11,U1_M11,ZSPAN_M11,X2_M11,X0_M11,X1_M11
2022-02-11 15:00:00,,0826.8,5.01,0.00,21.2,21.1,00.0,30.2,22.8,15.6,0000.0,0001.49,0005.85,0000.97
2022-02-11 15:01:00,,0827.0,5.00,0.00,21.2,21.0,00.0,30.2,22.8,15.6,0000.0,0001.43,0005.17,0000.95
2022-02-11 15:02:00,,0826.9,4.99,0.00,21.1,20.8,00.0,30.2,22.7,15.7,0000.0,0001.39,0004.99,0000.93
2022-02-11 15:03:00,,0826.9,4.98,0.00,21.1,20.6,00.0,30.2,22.6,15.6,0000.0,0001.35,0004.35,0000.92
2022-02-11 15:04:00,,0826.9,5.02,0.00,21.0,20.4,00.0,30.1,22.5,15.6,0000.0,0001.32,0004.32,0000.90
2022-02-11 15:05:00,,0826.9,4.99,0.00,21.0,20.3,00.0,30.1,22.5,15.6,0000.0,0001.27,0004.06,0000.89
2022-02-11 15:06:00,,0826.9,5.02,0.00,20.9,20.1,00.0,30.1,22.4,15.6,0000.0,0001.28,0004.02,0000.88
2022-02-11 15:07:00,,0826.9,4.99,0.00,20.9,20.1,00.0,30.1,22.3,15.7,0000.0,0001.28,0003.86,0000.87
2022-02-11 15:08:00,,0826.9,5.00,0.00,20.8,20.1,00.0,30.0,22.3,15.7,0000.0,0001.29,0003.78,0000.87
2022-02-11 15:09:00,,0826.9,5.01,0.00,20.8,20.0,00.0,30.0,22.2,15.7,0000.0,0001.31,0004.51,0000.87
2022-02-11 15:10:00,,0826.9,4.99,0.00,20.8,20.8,00.0,30.0,22.5,15.7,0000.0,0001.24,0005.09,0000.86
2022-02-11 15:11:00,,0827.0,4.99,0.00,21.0,21.8,00.0,30.1,22.9,15.6,0000.0,0001.22,0004.85,0000.86
2022-02-11 15:12:00,,0826.9,5.01,0.00,21.2,22.5,00.0,30.1,23.2,15.4,0000.0,0001.22,0004.84,0000.86
2022-02-11 15:13:00,,0826.9,4.99,0.00,21.3,22.1,00.0,30.1,23.1,15.3,0000.0,0001.21,0004.51,0000.85
2022-02-11 15:14:00,,0826.9,5.00,0.00,21.3,21.7,00.0,30.2,23.0,15.3,0000.0,0001.28,0004.46,0000.85
2022-02-11 15:15:00,,0826.9,4.99,0.00,21.2,21.4,00.0,30.2,22.9,15.4,0000.0,0001.27,0004.40,0000.87
2022-02-11 15:16:00,,0826.9,5.00,0.00,21.2,21.2,00.0,30.2,22.8,15.4,0000.0,0001.26,0004.31,0000.86
2022-02-11 15:17:00,,0826.9,5.01,0.00,21.1,20.9,00.0,30.2,22.7,15.5,0000.0,0001.26,0004.42,0000.87
2022-02-11 15:18:00,,0826.9,5.00,0.00,21.1,20.7,00.0,30.2,22.6,15.5,0000.0,0001.24,0004.45,0000.87
2022-02-11 15:19:00,,0826.9,5.00,0.00,21.0,20.5,00.0,30.1,22.5,15.5,0000.0,0001.23,0004.90,0000.87
2022-02-11 15:20:00,,0826.9,5.01,0.00,21.0,20.4,00.0,30.1,22.4,15.5,0000.0,0001.28,0004.35,0000.87
2022-02-11 15:21:00,,0827.0,4.99,0.00,20.9,20.3,00.0,30.1,22.4,15.4,0000.0,0001.32,0003.56,0000.86
2022-02-11 15:22:00,,0827.0,5.01,0.00,20.9,20.2,00.0,30.1,22.3,15.4,0000.0,0001.32,0003.46,0000.86
2022-02-11 15:23:00,,0827.0,4.98,0.00,20.8,20.0,00.0,30.0,22.4,15.4,0000.0,0001.30,0003.44,0000.86
2022-02-11 15:24:00,,0827.0,5.00,0.00,20.8,20.0,00.0,30.0,22.3,15.5,0000.0,0001.32,0003.52,0000.86
2022-02-11 15:25:00,,0827.0,5.02,0.00,20.8,20.4,00.0,30.0,22.4,15.5,0000.0,0001.31,0003.53,0000.86
2022-02-11 15:26:00,,0827.0,4.99,0.00,21.0,21.5,00.0,30.1,22.8,15.4,0000.0,0001.33,0003.90,0000.85
2022-02-11 15:27:00,,0827.0,5.00,0.00,21.2,22.5,00.0,30.1,23.2,15.2,0000.0,0001.34,0005.00,0000.86
2022-02-11 15:28:00,,0827.0,5.00,0.00,21.4,22.5,00.0,30.2,23.3,14.9,0000.0,0001.35,0004.90,0000.86
2022-02-11 15:29:00,,0826.9,4.99,0.00,21.3,22.1,00.0,30.2,23.2,14.9,0000.0,0001.36,0004.84,0000.87
2022-02-11 15:30:00,,0826.9,5.00,0.00,21.3,21.7,00.0,30.2,23.0,14.9,0000.0,0001.36,0004.49,0000.88
2022-02-11 15:31:00,,0826.9,5.00,0.00,21.3,21.4,00.0,30.2,22.9,15.0,0000.0,0001.30,0003.65,0000.88
2022-02-11 15:32:00,,0827.0,5.02,0.00,21.2,21.1,00.0,30.2,22.8,15.0,0000.0,0001.26,0003.60,0000.88
2022-02-11 15:33:00,,0827.0,4.99,0.00,21.2,20.9,00.0,30.2,22.7,15.0,0000.0,0001.23,0003.51,0000.88
2022-02-11 15:34:00,,0826.9,5.01,0.00,21.1,20.8,00.0,30.2,22.7,14.9,0000.0,0001.21,0003.46,0000.87
2022-02-11 15:35:00,,0826.9,5.00,0.00,21.1,20.6,00.0,30.2,22.7,14.8,0000.0,0001.18,0003.33,0000.88
2022-02-11 15:36:00,,0827.0,4.99,0.00,21.1,20.5,00.0,30.2,22.6,14.8,0000.0,0001.14,0003.25,0000.90
2022-02-11 15:37:00,,0827.0,5.02,0.00,21.0,20.4,00.0,30.2,22.6,14.8,0000.0,0001.12,0003.05,0000.91
2022-02-11 15:38:00,,0827.1,4.99,0.00,21.0,20.4,00.0,30.1,22.6,14.9,0000.0,0001.10,0001.67,0000.92
2022-02-11 15:39:00,,0827.0,5.01,0.00,21.0,20.3,00.0,30.1,22.5,14.8,0000.0,0001.09,0001.71,0000.92
2022-02-11 15:40:00,,0827.0,4.99,0.00,20.9,20.2,00.0,30.1,22.5,14.8,0000.0,0001.09,0001.93,0000.92
2022-02-11 15:41:00,,0827.0,5.01,0.00,20.9,20.2,00.0,30.1,22.4,14.9,0000.0,0001.11,0001.95,0000.94
2022-02-11 15:42:00,,0827.0,4.99,0.00,20.9,20.1,00.0,30.1,22.4,14.9,0000.0,0001.16,0002.03,0000.96
2022-02-11 15:43:00,,0827.0,5.00,0.00,20.9,20.8,00.0,30.1,22.6,14.9,0000.0,0001.18,0002.02,0000.98
2022-02-11 15:44:00,,0827.0,4.99,0.00,21.1,21.9,00.0,30.1,23.0,14.9,0000.0,0001.21,0002.03,0001.01
2022-02-11 15:45:00,,0827.0,5.00,0.00,21.3,22.7,00.0,30.2,23.4,14.8,0000.0,0001.24,0002.12,0001.03
2022-02-11 15:46:00,,0827.1,4.99,0.00,21.4,22.4,00.0,30.2,23.4,14.7,0000.0,0001.27,0002.16,0001.05
2022-02-11 15:47:00,,0827.1,5.01,0.00,21.4,22.1,00.0,30.2,23.3,14.7,0000.0,0001.30,0002.28,0001.07
2022-02-11 15:48:00,,0827.1,5.00,0.00,21.4,21.8,00.0,30.3,23.2,14.6,0000.0,0001.29,0002.24,0001.09
2022-02-11 15:49:00,,0827.1,5.01,0.00,21.4,21.6,00.0,30.3,23.1,14.5,0000.0,0001.33,0002.31,0001.11
2022-02-11 15:50:00,,0827.1,5.01,0.00,21.4,21.4,00.0,30.3,23.1,14.5,0000.0,0001.35,0002.30,0001.13
2022-02-11 15:51:00,,0827.1,5.01,0.00,21.4,21.3,00.0,30.3,23.0,14.5,0000.0,0001.40,0002.04,0001.16
2022-02-11 15:52:00,,0827.2,5.00,0.00,21.4,21.2,00.0,30.3,23.0,14.4,0000.0,0001.40,0002.04,0001.17
2022-02-11 15:53:00,,0827.2,4.99,0.00,21.3,21.0,00.0,30.3,22.9,14.4,0000.0,0001.41,0002.05,0001.18
2022-02-11 15:54:00,,0827.1,5.00,0.00,21.3,20.9,00.0,30.3,22.9,14.5,0000.0,0001.45,0002.16,0001.21
2022-02-11 15:55:00,,0827.2,5.00,0.00,21.3,20.8,00.0,30.3,22.9,14.6,0000.0,0001.47,0002.22,0001.23
2022-02-11 15:56:00,,0827.2,5.01,0.00,21.2,20.7,00.0,30.3,22.8,14.7,0000.0,0001.48,0002.17,0001.22
2022-02-11 15:57:00,,0827.2,5.00,0.00,21.2,20.6,00.0,30.3,22.8,14.8,0000.0,0001.48,0002.18,0001.21
2022-02-11 15:58:00,,0827.2,5.02,0.00,21.2,20.6,00.0,30.3,22.7,14.7,0000.0,0001.46,0002.11,0001.20
2022-02-11 15:59:00,,0827.1,4.99,0.00,21.1,20.5,00.0,30.3,22.7,14.7,0000.0,0001.46,0002.14,0001.19
